Theta_e
308 308 307 307 307 307 307 307 309 309 311 310 308 307 309 309 309 308 308 311 312 313 312 311 310 308 307 307 305 304 302 296 295 293 292 292 291 290 289 288 287 287 287 287
308 308 308 307 306 306 307 307 307 307 308 307 307 307 307 307 308 308 308 310 313 313 312 311 310 309 307 306 304 303 300 296 295 293 291 291 289 288 287 287 286 286 286 287
310 309 308 307 306 306 307 307 306 306 306 306 306 307 308 310 310 310 309 308 310 313 312 312 311 310 308 306 304 302 299 295 294 293 289 289 287 287 287 286 286 285 286 286
309 309 309 308 308 308 308 308 307 307 307 307 308 310 310 308 309 311 312 312 309 308 310 311 311 308 307 306 304 302 301 296 294 291 289 287 287 288 287 285 285 286 286 287
309 308 308 307 306 307 309 308 308 308 308 308 308 309 309 308 307 308 310 311 311 309 309 310 311 308 307 304 303 302 299 298 294 290 290 288 289 288 288 287 288 288 288 288
307 308 306 306 307 307 307 306 307 306 308 310 308 304 307 308 308 307 310 309 309 310 310 310 309 307 306 304 302 300 298 297 293 291 290 289 289 290 288 288 288 288 288 288
308 308 307 307 307 307 308 307 308 307 308 308 306 306 308 308 309 308 308 307 307 309 310 309 308 307 306 304 301 299 296 294 293 291 291 290 290 288 288 288 288 288 287 287
308 308 309 307 307 307 308 306 305 307 306 306 307 307 307 306 306 307 308 307 306 306 307 307 307 306 304 302 300 298 296 295 293 293 292 289 287 288 288 288 288 287 287 287
304 305 307 306 306 305 306 306 307 307 307 306 306 306 304 306 306 306 308 307 306 305 305 304 304 304 302 300 299 297 295 294 293 292 289 287 287 288 288 288 288 287 287 286
306 307 307 306 306 306 306 305 306 306 306 306 305 304 304 304 305 305 305 307 305 304 303 303 302 302 302 299 297 296 295 294 292 289 288 287 287 288 288 287 287 287 286 285
306 305 306 306 305 305 305 305 305 305 306 306 305 306 306 307 306 306 305 306 305 304 302 301 301 300 300 298 296 295 294 292 291 290 288 287 287 287 287 287 287 286 286 284
305 305 305 305 304 305 304 304 304 304 304 305 304 304 307 307 306 305 304 305 303 302 301 299 299 298 297 296 296 295 292 291 290 289 287 287 287 287 287 287 287 286 284 284
303 304 303 303 303 303 303 303 302 302 303 302 302 302 305 306 305 305 305 303 303 302 300 299 297 296 296 295 294 293 292 290 290 288 287 287 287 287 287 287 286 286 286 286
305 304 304 305 304 303 303 302 302 303 302 302 302 302 304 304 305 304 305 303 302 300 299 298 297 296 295 293 293 293 292 290 289 289 288 288 288 287 287 287 287 286 286 286
304 303 304 305 305 304 302 302 302 303 303 303 304 304 304 305 304 303 303 303 301 300 299 298 296 296 295 293 293 292 291 290 290 289 289 288 288 288 287 287 287 286 286 285
304 304 305 305 305 305 303 302 302 303 303 303 305 305 305 305 304 304 303 301 300 299 298 297 296 296 294 293 293 292 291 290 290 289 289 288 288 288 288 287 287 287 286 285
304 304 305 305 305 304 303 303 304 305 305 305 305 305 306 305 304 304 301 301 300 299 298 297 295 294 294 293 293 292 291 290 290 289 289 289 288 288 288 288 287 287 286 284
302 302 303 302 305 305 305 304 304 304 304 305 305 305 305 306 305 303 301 299 298 296 295 294 294 293 292 292 292 291 291 290 290 289 289 289 288 288 287 287 286 286 285 285
300 299 300 303 303 304 303 303 303 303 303 304 305 305 305 305 304 301 299 298 296 295 294 293 293 292 292 291 291 291 290 290 289 289 288 288 287 287 286 286 286 285 285 285
298 298 299 302 303 303 302 300 300 300 300 302 303 303 302 301 300 298 298 298 295 296 294 293 292 292 291 291 291 290 289 289 288 287 287 287 286 286 286 286 286 286 285 285
298 298 298 300 300 301 302 300 299 299 298 298 298 299 299 298 298 298 298 296 295 295 294 292 292 291 290 290 289 289 289 288 287 287 287 287 287 286 286 286 286 286 285 285
297 297 297 298 299 300 300 300 299 299 298 298 297 297 297 297 296 296 296 296 294 293 292 291 291 290 289 289 289 289 289 289 288 287 287 287 287 287 286 286 286 285 284 284
296 296 296 296 298 298 299 299 298 298 298 298 298 298 298 297 297 295 293 293 292 292 291 292 291 290 289 289 289 289 290 289 288 288 288 287 287 286 285 285 284 284 283 283
295 296 296 296 296 296 296 296 296 296 297 297 297 297 297 296 295 293 292 292 292 291 291 291 290 290 289 289 289 288 289 289 288 287 287 286 285 285 284 284 283 283 282 282
294 295 296 296 296 297 297 296 295 295 295 295 295 295 295 294 294 294 293 293 293 291 291 290 290 290 290 289 288 288 288 288 287 286 285 285 284 284 284 283 283 282 281 280
293 294 294 295 297 297 296 296 294 293 293 293 293 293 293 293 294 294 294 293 293 291 290 290 290 290 289 288 288 288 287 286 285 285 284 284 283 283 283 282 281 280 280 279
293 293 293 294 295 296 296 296 295 294 294 292 292 292 292 292 292 292 292 291 290 289 289 289 289 288 287 287 286 286 286 285 284 284 283 283 282 282 281 280 280 279 278 277
Wind_Speed
13 16 17 17 18 18 19 13 10 11 15 19 12 7 19 25 27 29 23 28 32 39 42 44 42 40 38 36 35 33 35 34 30 28 27 24 21 17 16 14 13 13 13 14
20 19 16 18 21 16 18 19 17 17 21 19 19 23 23 20 17 20 23 27 32 41 40 44 43 43 42 39 38 36 37 37 32 29 29 25 21 18 17 16 16 15 15 15
8 9 10 12 17 19 20 20 15 16 19 8 10 10 8 13 17 14 9 8 22 33 40 43 44 45 45 42 39 37 34 34 32 29 28 26 23 20 18 17 18 18 17 16
6 2 8 10 8 13 18 20 13 15 5 9 5 19 20 23 21 18 16 13 13 25 32 36 44 43 42 41 38 35 31 30 28 29 26 25 22 19 17 18 19 19 18 15
5 7 10 14 13 12 3 11 14 10 1 5 5 6 6 17 15 15 13 13 7 10 17 27 40 43 41 39 35 34 31 27 26 28 25 24 23 21 19 19 19 16 15 14
5 5 7 1 4 1 4 6 6 6 5 3 6 4 3 12 12 9 5 8 11 11 13 24 37 41 40 36 35 35 30 26 26 28 26 27 27 23 19 18 18 19 16 13
14 8 6 3 7 5 4 4 16 16 12 10 4 4 5 6 10 12 8 10 8 7 16 28 34 36 35 35 36 33 28 28 29 28 25 25 21 22 23 22 24 23 21 17
2 4 7 3 4 5 5 7 8 13 6 12 15 8 1 3 9 12 3 7 3 9 17 22 26 28 33 35 34 31 30 28 29 23 23 25 25 26 26 26 27 26 22 19
3 3 3 16 8 13 15 11 18 7 1 9 10 7 3 5 7 12 11 10 11 15 18 22 25 27 33 34 33 32 32 31 27 23 25 28 29 29 28 28 28 25 23 21
3 7 6 14 11 7 7 4 2 1 8 10 11 10 8 7 6 10 12 17 20 20 21 21 24 26 25 30 32 32 32 28 27 29 28 29 28 29 30 29 27 24 24 22
3 16 10 3 10 7 8 9 10 5 4 9 7 12 12 10 11 12 8 15 23 21 23 25 24 25 26 28 31 29 25 27 30 27 28 29 30 30 28 26 23 22 24 22
4 6 1 4 6 7 6 7 7 10 11 8 10 10 13 13 15 16 16 21 25 22 21 27 26 25 25 25 25 24 28 31 29 30 30 29 30 27 22 19 16 14 14 16
6 20 18 18 15 15 14 12 13 18 10 9 10 11 12 15 16 14 18 27 26 24 25 23 26 27 24 22 21 26 32 31 29 31 30 28 29 28 27 21 15 12 13 13
16 21 18 19 24 17 11 14 12 6 8 13 14 13 10 7 5 3 21 23 23 26 22 20 24 24 20 23 26 28 27 28 29 29 27 27 26 26 23 22 21 21 19 19
21 23 23 25 23 19 12 13 11 9 10 13 14 12 11 6 8 12 15 17 21 23 20 22 25 23 20 25 28 25 26 28 27 24 24 24 24 23 22 21 20 20 21 22
20 20 23 21 22 16 10 7 12 10 12 12 9 7 8 9 15 12 16 24 29 25 24 26 26 25 24 26 29 27 27 26 24 23 23 25 24 24 23 21 19 18 19 22
19 21 20 23 21 12 9 8 7 4 6 7 9 7 9 14 15 19 22 22 22 21 24 26 27 28 28 28 29 27 26 26 24 24 23 24 26 26 24 22 20 18 14 13
18 14 15 16 17 12 7 7 8 10 11 8 4 7 9 16 15 19 22 25 22 23 23 23 24 24 25 27 27 27 27 26 25 23 22 22 24 24 24 22 19 17 14 13
14 17 13 11 12 11 9 9 10 11 8 4 5 6 8 20 19 26 26 26 23 23 22 19 19 20 25 26 25 24 24 24 23 22 21 20 21 23 22 20 18 16 15 15
17 17 14 10 10 8 9 8 7 7 5 4 2 9 15 20 22 27 25 21 23 19 21 20 17 18 21 22 20 19 19 19 20 19 17 16 16 18 18 16 16 16 18 19
17 18 16 11 11 10 6 6 7 8 8 6 4 4 10 14 11 13 16 20 19 17 17 20 19 19 20 20 18 17 16 16 18 17 15 15 15 16 16 16 17 17 19 18
16 17 16 14 8 9 6 2 3 3 6 7 8 9 11 12 13 14 14 17 20 18 19 21 19 19 20 20 18 16 14 13 15 17 16 15 15 16 17 18 18 17 16 17
13 14 14 12 8 6 7 1 2 3 3 3 5 6 8 10 13 15 17 17 17 19 20 18 17 19 21 22 19 16 14 13 13 15 16 15 16 17 15 15 16 17 17 17
12 14 12 9 7 7 8 5 3 2 3 4 6 8 9 12 14 14 12 14 17 19 20 20 20 19 20 23 22 20 17 15 15 15 16 15 15 15 15 17 17 16 16 16
16 12 10 9 7 9 11 9 4 3 3 5 8 10 11 11 11 13 16 15 16 17 18 19 19 18 18 20 22 21 18 15 15 15 15 15 15 15 16 18 17 16 15 15
17 16 14 11 9 9 9 9 5 5 5 9 11 12 13 14 13 12 14 16 18 20 20 21 20 18 18 20 20 19 17 16 16 15 15 15 15 16 17 16 15 15 15 15
16 16 15 14 12 10 8 9 10 12 10 11 14 13 13 14 14 13 15 18 19 20 20 20 20 20 20 20 18 17 16 16 15 15 15 15 14 15 14 14 13 12 12 13
Wind_Direction
261 264 271 269 276 277 274 263 224 275 273 280 268 258 196 224 230 238 260 213 211 197 198 197 200 202 204 210 208 210 214 211 209 207 206 204 203 196 194 194 191 182 176 167
256 253 260 272 266 270 268 263 258 251 247 258 282 274 280 280 270 251 256 212 208 199 199 198 200 204 204 207 207 208 210 208 208 207 205 204 203 196 192 188 185 179 172 169
261 226 249 256 257 246 256 257 249 253 261 268 272 269 329 2 30 15 337 197 202 206 209 206 206 210 207 209 205 205 209 208 208 207 203 202 198 192 187 185 183 178 177 178
274 230 254 231 203 222 233 249 254 253 281 294 5 89 61 37 16 11 17 356 250 225 214 212 207 205 208 208 204 205 211 209 207 204 196 193 190 187 181 182 180 177 178 172
243 243 294 290 283 275 243 260 266 254 168 49 10 146 71 21 8 345 329 344 301 193 214 211 207 203 204 202 199 206 205 211 202 200 193 188 184 186 184 179 176 174 182 171
230 251 249 352 8 325 107 301 243 161 123 137 43 54 289 5 2 358 36 9 304 273 213 195 198 197 195 197 198 203 202 203 198 198 196 188 186 192 184 178 171 186 189 198
228 227 272 46 355 33 135 262 339 84 112 127 100 143 22 346 306 315 330 300 303 196 194 191 186 191 194 197 197 199 195 193 194 200 203 201 183 179 180 180 182 192 198 200
201 232 240 183 47 142 186 275 357 280 108 120 130 136 84 14 350 324 272 225 250 174 176 176 186 191 192 193 195 194 196 201 198 205 202 175 180 181 186 187 193 196 204 204
190 247 224 184 187 212 188 212 215 211 219 182 174 181 230 267 314 332 276 231 186 189 174 183 187 190 187 191 194 193 195 194 196 191 181 173 185 185 190 197 201 205 211 214
346 343 223 200 233 245 238 262 313 31 303 220 199 216 244 269 298 318 311 221 197 188 181 180 188 194 203 194 196 196 195 197 188 179 179 181 193 195 197 201 207 216 217 216
298 256 300 25 331 338 323 336 328 328 329 308 274 263 258 256 264 274 330 202 198 199 193 185 188 196 197 196 197 197 196 186 184 186 179 185 194 202 206 215 223 229 225 222
251 307 309 260 301 307 264 300 310 286 292 254 278 287 261 241 259 275 254 217 198 196 198 190 188 190 192 197 199 193 183 180 183 179 186 192 194 197 211 224 225 215 204 220
284 325 325 312 301 292 275 274 287 293 281 301 289 281 249 248 280 254 226 182 190 195 196 194 194 197 198 199 197 186 183 183 185 184 190 194 194 198 195 199 207 213 215 218
359 355 346 331 319 299 287 284 282 280 304 288 282 259 245 256 328 178 169 171 178 190 195 193 194 198 193 195 183 182 184 187 187 189 194 196 197 200 204 209 206 205 206 217
342 336 325 314 303 304 284 275 270 253 279 296 264 251 230 224 125 156 160 169 186 193 192 190 189 195 183 180 183 184 184 190 194 194 196 200 203 205 211 216 224 226 225 224
335 332 336 325 311 294 293 285 286 240 264 291 261 262 229 200 168 172 196 179 186 184 186 186 187 191 184 179 183 187 189 194 197 197 194 197 209 211 210 214 215 220 231 235
357 347 354 356 353 343 323 294 303 322 302 279 258 234 231 200 186 186 173 192 192 189 188 189 186 184 183 188 190 190 192 195 199 200 203 202 206 213 216 216 225 234 237 222
5 358 9 0 353 352 6 356 337 308 305 282 270 245 249 193 187 174 184 183 181 179 184 187 188 189 192 191 192 194 197 199 203 208 212 213 217 221 224 229 234 235 232 224
2 353 2 10 17 17 16 354 344 325 308 298 244 247 215 192 190 180 179 174 173 177 174 188 194 191 192 196 197 200 204 206 209 212 217 219 219 220 222 224 226 232 237 238
360 0 5 13 2 1 9 16 16 18 40 71 135 167 171 171 175 170 172 171 175 185 173 182 191 193 195 197 196 198 203 206 207 204 202 203 205 206 209 216 223 229 235 244
356 358 6 13 14 0 350 27 46 67 74 86 116 149 163 161 176 182 178 169 170 167 173 179 188 188 191 192 189 186 188 193 199 203 203 203 203 208 214 222 230 237 242 245
351 348 357 5 14 1 348 115 26 68 82 90 103 127 149 154 156 156 162 162 160 164 175 182 185 190 191 193 191 187 191 193 200 205 208 210 212 217 228 232 234 235 239 234
342 340 341 349 8 7 358 334 327 233 211 149 142 141 153 162 167 168 167 167 178 175 174 176 183 186 190 195 199 201 202 208 210 211 215 220 226 228 229 230 230 230 233 240
338 344 340 337 335 341 339 317 291 214 214 210 196 193 195 189 184 181 182 183 183 186 183 190 190 190 193 200 206 210 214 219 220 216 219 222 219 223 229 228 227 229 233 235
338 330 332 338 323 319 321 311 280 250 229 191 182 189 194 195 208 196 192 196 197 191 191 194 195 195 201 205 207 212 217 217 217 215 215 218 223 229 224 224 226 232 240 243
337 326 319 303 289 296 292 304 265 253 223 196 196 201 200 200 202 203 201 201 196 192 195 193 194 198 199 199 203 208 211 211 212 214 219 224 223 220 222 224 232 242 247 253
334 333 324 316 297 270 262 264 249 255 259 239 226 219 209 204 204 205 203 198 196 193 195 196 195 195 198 201 203 205 210 213 215 219 220 223 223 225 232 238 243 249 255 260